Location: Zerbst
(51.9650°N, 12.0766°E)
Time: 11:44:47
(UTC+02:00)

ISS - Pass Details

Date: 18 May 2017
Orbit: 402 x 409 km, 51.6° (Epoch: 24 May)

Event Time Altitude Azimuth Distance (km) Brightness Sun altitude
Exits shadow 03:56:42 - 268° (W) 1,827 -0.9 -9.6°
Reaches altitude 10° 03:57:34 10° 268° (W) 1,467 -1.4 -9.5°
Maximum altitude 04:00:52 87° 180° (S) 411 -3.9 -9.2°
Drops below altitude 10° 04:04:09 10° 91° (E) 1,462 -0.4 -8.8°
Sets 04:06:13 0° 91° (E) 2,321 0.7 -8.6°
